ソーホー彗星

C/2020 X3 ( SOHO )

English version
Home page
Updated on December 20, 2020

---------------------------------------------------------------------

・ プロフィール

発見日 2020年12月13日
発見光度 11.5等
発見者 Worachate Boonplod (LASCO C3 coronagraph images taken with the SOHO spacecraft)

・ 軌道要素

T 2020 Dec. 14.94587 TT                                 Veres                   
q   0.0050117            (2000.0)            P               Q                  
                   Peri.   77.35832     +0.17952892     -0.98332078             
                   Node   357.16186     -0.96122417     -0.16903592             
e   1.0            Incl.  143.93683     +0.20932622     +0.06713498             
From 104 observations 2020 Dec. 13-14.                                          

・ 光度変化

        m1 = 18.5 + 5 logΔ + 10.0 log r

---------------------------------------------------------------------

軌道要素はM.P.E.C. 2020-Y19に掲載されたものです。
光度グラフはComet for Windowsで作成したものです。

---------------------------------------------------------------------

Copyright(C) Seiichi Yoshida (comet@aerith.net). All rights reserved.